Regional Weather Roundup
Issued by NWS Green Bay, WI

Home | Current Version | Previous Version | Text Only | Print | Product List | Glossary On
Versions: 1 2 3 4 5 6 7 8 9 10 11 12 13 14 15 16 17 18 19 20 21 22 23 24 25 26 27 28 29 30 31 32 33 34 35 36 37 38 39 40 41 42 43 44 45 46 47 48 49 50
000
ASUS43 KGRB 021811
RWRGRB

NORTH-CENTRAL AND NORTHEAST WISCONSIN REGIONAL WEATHER ROUNDUP
NATIONAL WEATHER SERVICE GREEN BAY WI
100 PM CDT SUN AUG 02 2015

WIZ005-009-010>012-018-019-021900-
NORTH CENTRAL WISCONSIN

CITY           SKY/WX    TMP DP  RH WIND       PRES   REMARKS
IRONWOOD       CLOUDY    70  61  73 W8        29.61S
MANITOWISH WTR CLOUDY    69  65  85 W5        29.65R
ARBOR VITAE    CLOUDY    72  67  85 SW3       29.63R
EAGLE RIVER    CLOUDY    60  58  96 S6        29.63F
LAND O LAKES   CLOUDY    64  61  88 CALM      29.64R
RHINELANDER    CLOUDY    64  60  87 E5        29.63F
PHILLIPS       CLOUDY    67  62  86 CALM      29.65R
ANTIGO         CLOUDY    75  67  76 W7        29.63R
TOMAHAWK       CLOUDY    69  60  73 N3        29.65F
MERRILL        NOT AVBL
$$

WIZ013-073-021900-
NORTHEAST WISCONSIN

CITY           SKY/WX    TMP DP  RH WIND       PRES   REMARKS
IRON MOUNTAIN  HVY RAIN  65  63  93 S7G17     29.64R VSB 1
MARINETTE      CLOUDY    77  66  69 S5        29.57F
OCONTO         CLOUDY    78  72  80 SE3       29.57F
$$

WIZ017-030-035>037-045-021900-
CENTRAL WISCONSIN

CITY           SKY/WX    TMP DP  RH WIND       PRES   REMARKS
MEDFORD        CLOUDY    77  68  75 NW9       29.62F
WAUSAU         PTSUNNY   84  67  56 NW13      29.59R
MOSINEE        MOSUNNY   86  68  54 SW12      29.60F
MARSHFIELD     PTSUNNY   86  66  51 W20       29.59F
WISC RAPIDS    MOSUNNY   90  64  42 SW20G26   29.60F HX  91
STEVENS POINT  MOSUNNY   86  65  49 SW18G29   29.58F
WAUPACA        MOSUNNY   92  64  38 SW17G23   29.56F HX  93
SHAWANO          N/A     87  68  53 SW10      29.56F HX  90
CLINTONVILLE   MOSUNNY   88  63  42 SW18      29.56F
$$

WIZ038-039-048-051-021900-
FOX VALLEY

CITY           SKY/WX    TMP DP  RH WIND       PRES   REMARKS
NWS GREEN BAY  PTSUNNY   86  71  60 S13G23    29.58F HX  91
APPLETON       PTSUNNY   86  66  51 SW17G24   29.61F
OSHKOSH        SUNNY     88  69  53 SW22G29   29.59F HX  92
FOND DU LAC    SUNNY     87  70  56 SW16G28   29.62F HX  92
$$

WIZ022-050-052-021900-
EAST CENTRAL WISCONSIN

CITY           SKY/WX    TMP DP  RH WIND       PRES   REMARKS
STURGEON BAY   CLOUDY    73  66  78 N5        29.63S
MANITOWOC      MOSUNNY   87  69  54 MISG      29.60F HX  91
SHEBOYGAN      MOSUNNY   89  69  51 SW21G30   29.63F HX  93
$$

LMZ563-521-522-541>543-021900-
LAKESHORE

STATION/POSITION TIME  TEMP    WIND        PRES    VSBY  WAVE
                       AIR SEA DIR/SP/G                  HT/PER
                 (UTC) (F)     (DEG/KT/KT) (MB)    (MI)  (FT/S)
SHEBOYGAN LKSHOR 1800   84     220/ 21/ 24 1002.8F
KEWAUNEE LKSHORE 1700   64     180/ 10/ 12 1002.9F
ALGOMA MARINA    1712          220/ 13/ 16   N/A
NORTHPORT PIER   1720   69     300/ 10/ 19 1004.1R
N MID LAKE BUOY  1750   69 69  270/  8/ 12 1004.1R         2/ 5
CHAMBERS ISLAND  1700   70     320/ 10/ 13 1004.4R
MENOMINEE LKSHOR 1700   74     270/ 11/ 18 1005.0R
$$


USA.gov is the U.S. government's official web portal to all federal, state and local government web resources and services.